Location: Ferchesar
(52.6477°N, 12.4298°E)
Time: 16:49:14
(UTC+01:00)

Tiros 1 - Pass Details

Date: 05 December 2021
Orbit: 629 x 664 km, 48.4° (Epoch: 22 January)

Event Time Altitude Azimuth Distance (km) Brightness Sun altitude
Rises 23:37:34 0° 276° (W) 2,953 - -59.5°
Reaches altitude 10° 23:40:18 10° 262° (W) 2,047 - -59.6°
Maximum altitude 23:43:54 22° 212° (SSW) 1,419 - -59.7°
Drops below altitude 10° 23:47:31 10° 162° (SSE) 2,057 - -59.7°
Sets 23:50:17 0° 147° (SSE) 2,971 - -59.8°
